This demonstration page uses our WeatherBlox Daily Observations layout. Learn more.

Left ArrowRight Arrow

Hourly Observations for January 31, 2022

Temp ( °F °C ) Dew Point ( °F °C ) Humidity (%) Winds ( mph kmh ) Pressure ( in mb ) Visibility ( mi km ) Precip ( " mm )
12:53 am 00:53 Mostly Cloudy 55 12.8 30 -1.1 38 38 SSE 5 7 30.04 1017 10 16 0.00 0.00
1:53 am 01:53 Mostly Cloudy 52 11.1 31 -0.6 45 45 SE 3 6 30.03 1017 10 16 0.00 0.00
2:53 am 02:53 Mostly Cloudy 53 11.7 33 0.6 47 47 SSE 6 9 30.02 1017 10 16 0.00 0.00
3:53 am 03:53 Mostly Cloudy 51 10.6 35 1.7 54 54 ESE 5 7 30.01 1016 10 16 0.00 0.00
4:53 am 04:53 Mostly Cloudy 49 9.4 36 2.2 61 61 ESE 5 7 30.01 1016 10 16 0.00 0.00
5:53 am 05:53 Partly Cloudy 48 8.9 36 2.2 63 63 ESE 7 11 29.99 1016 10 16 0.00 0.00
6:53 am 06:53 Partly Cloudy 47 8.3 37 2.8 69 69 ESE 6 9 30.00 1016 10 16 0.00 0.00
7:53 am 07:53 Sunny 48 8.9 39 3.9 71 71 ESE 5 7 30.01 1016 10 16 0.00 0.00
8:53 am 08:53 Mostly Cloudy 52 11.1 43 6.1 72 72 S 7 11 30.02 1017 10 16 0.00 0.00
9:53 am 09:53 Partly Cloudy 55 12.8 44 6.7 67 67 ESE 7 11 30.01 1016 10 16 0.00 0.00
10:53 am 10:53 Partly Cloudy 61 16.1 48 8.9 63 63 SE 10 17 29.99 1016 10 16 0.00 0.00
11:53 am 11:53 Partly Cloudy 65 18.3 51 10.6 61 61 SSE 12 19 29.95 1014 10 16 0.00 0.00
12:53 pm 12:53 Mostly Cloudy 67 19.4 51 10.6 57 57 S 14 22 29.92 1013 10 16 0.00 0.00
1:53 pm 13:53 Mostly Cloudy 67 19.4 52 11.1 59 59 S 8 13 29.88 1012 10 16 0.00 0.00
2:46 pm 14:46 Mostly Cloudy 66 19 52 11 60 60 SSW 8 13 29.87 1012 10 16 0.00 0.00
2:53 pm 14:53 Mostly Cloudy 66 18.9 53 11.7 63 63 S 12 19 29.87 1012 10 16 0.00 0.00
3:36 pm 15:36 Mostly Cloudy 64 17.8 53 11.7 68 68 S 13 20 29.88 1012 10 16 0.00 0.00
3:53 pm 15:53 Mostly Cloudy 64 17.8 52 11.1 65 65 S 14 22 29.88 1012 10 16 0.00 0.00
4:53 pm 16:53 Mostly Cloudy 63 17.2 51 10.6 65 65 SSE 18 30 29.88 1012 10 16 0.00 0.00
5:53 pm 17:53 Mostly Cloudy 61 16.1 51 10.6 70 70 S 13 20 29.89 1012 10 16 0.00 0.00
6:37 pm 18:37 Mostly Cloudy 60 15.6 51 10.6 72 72 S 17 28 29.91 1013 10 16 0.00 0.00
6:47 pm 18:47 Mostly Cloudy 61 16 52 11 72 72 S 15 24 29.91 1013 10 16 0.00 0.00
6:53 pm 18:53 Mostly Cloudy 60 15.6 52 11.1 75 75 S 13 20 29.91 1013 10 16 0.00 0.00
7:23 pm 19:23 Mostly Cloudy 60 15.6 52 11.1 75 75 S 9 15 29.94 1014 10 16 0.00 0.00
7:53 pm 19:53 Mostly Cloudy 59 15 51 10.6 75 75 S 9 15 29.93 1014 10 16 0.00 0.00
8:06 pm 20:06 Mostly Cloudy 60 15.6 51 10.6 72 72 SSE 7 11 29.95 1014 10 16 0.00 0.00
8:53 pm 20:53 Cloudy 59 15 52 11.1 78 78 S 9 15 29.94 1014 10 16 0.00 0.00
9:53 pm 21:53 Cloudy 59 15 52 11.1 78 78 S 12 19 29.94 1014 10 16 0.00 0.00
10:53 pm 22:53 Cloudy 58 14.4 52 11.1 81 81 S 9 15 29.92 1013 10 16 0.00 0.00
11:53 pm 23:53 Cloudy 58 14.4 51 10.6 78 78 S 12 19 29.91 1013 10 16 0.00 0.00

Powered by AerisWeather